sat.trackr.live / text

‹ back to catalog

GRUS-1A

NORAD 43890 · 2018-111Q

PAYLOAD ACTIVE UNKNOWN

§ Identity

Operator
Country
JPN
Launch date
2018-12-27
Launch site
VOSTO
Launch vehicle
Mass (kg)
RCS (m²)

External: N2YO · Heavens-Above · Gunter

§ Orbital elements

Epoch: 2026-05-25T04:54:08.845920Z

Period
96.06 min
Inclination
97.4568°
Eccentricity
0.0007117
Mean motion
14.98999513 rev/d
Perigee alt
565.0 km
Apogee alt
574.9 km
Semi-major
6,948.1 km
B*
2.5430e-5
RAAN
13.3258°
Arg perigee
230.5249°
Mean anomaly
129.5346°
Rev number
40,426

§ Raw data

GRUS-1A1 43890U 18111Q   26145.20426905  .00000252  00000+0  25430-4 0  99982 43890  97.4568  13.3258 0007117 230.5249 129.5346 14.98999513404262

JSON: /api/v1/satellites/43890 · /tle

For live sub-satellite position, see the globe view (requires WebGL).

§ Visibility from observer

Set your observer location to see the next 7 days of passes ≥ 10°. The values pass through the URL so the page stays shareable.

No JS? Fill the form by hand. The geolocation button needs JavaScript.

§ Radio — SatNOGS DB

ModeDescriptionDownlinkUplink
FM S-band telemetry 2.276 GHz

1 transmitter · refreshed weekly from db.satnogs.org